Jasno s ojedinelými nízkymi oblakmi
Jasno s ojedinelými nízkymi oblakmi
Jasno s ojedinelými nízkymi oblakmi
Jasno s ojedinelými nízkymi oblakmi
Jasno s ojedinelými nízkymi oblakmi
Jasno s ojedinelými nízkymi oblakmi
Jasno s ojedinelými nízkymi oblakmi
(°C)
19°
19°
18°
18°
17°
17°
15°
15°
14°
14°
13°
13°
13°
13°
(°C)
16°
15°
14°
12°
11°
10°
10°
VSV
VSV
VSV
VSV
VSV
V
V
(km/h)
12-22
13-22
13-21
12-23
12-19
11-18
11-18
(mm)
0
0
0
0
0
0
0
(%)
0
0
0
0
0
0
0

Výška Slnka nad obzorom

/ -11°
sun-icon
UV 5
04:11
20:28
Zmenšujúci sa polmesiac (228°)
00:05
06:50

Správy METAR pre lokalitu 51.82°S 39.23°V (UUOO)

Čas Podmienky Teplota/
Rosný bod
Vietor Viditeľnosť Počasie Oblaky Tlak Zmeniť Nespracované
VFR 19°C / 9°C 80º 6kt 9700m - Clouds and Visibility OK 1024 No Significant change. Runway 12: Clear and dry, 1-10% contamination with <1mm, friction coefficient 0.70. UUOO 271830Z 08003MPS CAVOK 19/09 Q1024 R12/010070 NOSIG RMK QFE754
VFR 20°C / 10°C 90º 6kt 9700m - Clouds and Visibility OK 1024 No Significant change. Runway 12: Clear and dry, 1-10% contamination with <1mm, friction coefficient 0.70. UUOO 271800Z 09003MPS CAVOK 20/10 Q1024 R12/010070 NOSIG RMK QFE754
VFR 21°C / 10°C 90º 6kt 9700m - Clouds and Visibility OK 1024 No Significant change. Runway 12: Clear and dry, 1-10% contamination with <1mm, friction coefficient 0.70. UUOO 271730Z 09003MPS CAVOK 21/10 Q1024 R12/010070 NOSIG RMK QFE754
VFR 21°C / 10°C 90º 6kt 9700m - Clouds and Visibility OK 1024 No Significant change. Runway 12: Clear and dry, 1-10% contamination with <1mm, friction coefficient 0.70. UUOO 271700Z 09003MPS CAVOK 21/10 Q1024 R12/010070 NOSIG RMK QFE754
VFR 23°C / 10°C 90º 8kt 9700m - Clouds and Visibility OK 1024 No Significant change. Runway 12: Clear and dry, 1-10% contamination with <1mm, friction coefficient 0.70. UUOO 271630Z 09004MPS CAVOK 23/10 Q1024 R12/010070 NOSIG RMK QFE754
VFR 23°C / 11°C 90º 6kt 9700m - Clouds and Visibility OK 1023 No Significant change. Runway 12: Clear and dry, 1-10% contamination with <1mm, friction coefficient 0.70. UUOO 271600Z 09003MPS CAVOK 23/11 Q1023 R12/010070 NOSIG RMK QFE753
VFR 24°C / 10°C 70º 6kt 9700m - Clouds and Visibility OK 1023 No Significant change. Runway 12: Clear and dry, 1-10% contamination with <1mm, friction coefficient 0.70. UUOO 271530Z 07003MPS CAVOK 24/10 Q1023 R12/010070 NOSIG RMK QFE753
VFR 24°C / 11°C 70º 8kt 9700m - Clouds and Visibility OK 1023 No Significant change. Runway 12: Clear and dry, 1-10% contamination with <1mm, friction coefficient 0.70. UUOO 271500Z 07004MPS CAVOK 24/11 Q1023 R12/010070 NOSIG RMK QFE753
VFR 25°C / 11°C 90º 8kt 9700m - Clouds and Visibility OK 1023 No Significant change. Runway 12: Clear and dry, 1-10% contamination with <1mm, friction coefficient 0.70. UUOO 271430Z 09004MPS CAVOK 25/11 Q1023 R12/010070 NOSIG RMK QFE753
VFR 24°C / 11°C 80º 8kt 9700m - Clouds and Visibility OK 1023 No Significant change. Runway 12: Clear and dry, 1-10% contamination with <1mm, friction coefficient 0.70. UUOO 271400Z 08004MPS CAVOK 24/11 Q1023 R12/010070 NOSIG RMK QFE753
VFR 25°C / 11°C 90º 10kt 9700m - Clouds and Visibility OK 1023 No Significant change. Runway 12: Clear and dry, 1-10% contamination with <1mm, friction coefficient 0.70. UUOO 271330Z 09005MPS CAVOK 25/11 Q1023 R12/010070 NOSIG RMK QFE753
VFR 26°C / 11°C 80º 10kt 9700m - Clouds and Visibility OK 1024 No Significant change. Runway 12: Clear and dry, 1-10% contamination with <1mm, friction coefficient 0.70. UUOO 271300Z 08005MPS CAVOK 26/11 Q1024 R12/010070 NOSIG RMK QFE753
VFR 25°C / 11°C 80º 8kt 9700m - Clouds and Visibility OK 1024 No Significant change. Runway 12: Clear and dry, 1-10% contamination with <1mm, friction coefficient 0.70. UUOO 271230Z 08004MPS CAVOK 25/11 Q1024 R12/010070 NOSIG RMK QFE754
VFR 24°C / 11°C 100º 8kt 9700m - Clouds and Visibility OK 1024 No Significant change. Runway 12: Clear and dry, 1-10% contamination with <1mm, friction coefficient 0.70. UUOO 271200Z 10004MPS CAVOK 24/11 Q1024 R12/010070 NOSIG RMK QFE754
VFR 24°C / 11°C 90º 6kt 9700m - Clouds and Visibility OK 1024 No Significant change. Runway 12: Clear and dry, 1-10% contamination with <1mm, friction coefficient 0.70. UUOO 271130Z 09003MPS CAVOK 24/11 Q1024 R12/010070 NOSIG RMK QFE754
VFR 23°C / 11°C 60º 6kt 9700m - Clouds and Visibility OK 1024 No Significant change. Runway 12: Clear and dry, 1-10% contamination with <1mm, friction coefficient 0.70. UUOO 271100Z 06003MPS CAVOK 23/11 Q1024 R12/010070 NOSIG RMK QFE754
VFR 24°C / 11°C 50º 8kt 9700m - Clouds and Visibility OK 1024 No Significant change. Runway 12: Clear and dry, 1-10% contamination with <1mm, friction coefficient 0.70. UUOO 271030Z 05004MPS CAVOK 24/11 Q1024 R12/010070 NOSIG RMK QFE754
VFR 25°C / 10°C 80º 8kt 9700m - Clouds and Visibility OK 1024 No Significant change. Runway 12: Clear and dry, 1-10% contamination with <1mm, friction coefficient 0.70. UUOO 271000Z 08004MPS CAVOK 25/10 Q1024 R12/010070 NOSIG RMK QFE754
VFR 26°C / 10°C 110º variable 070º to 140º 8kt 9700m - Clouds and Visibility OK 1024 No Significant change. Runway 12: Clear and dry, 1-10% contamination with <1mm, friction coefficient 0.70. UUOO 270930Z 11004MPS 070V140 CAVOK 26/10 Q1024 R12/010070 NOSIG RMK QFE754
VFR 25°C / 11°C 50º variable 020º to 090º 8kt 9700m - Clouds and Visibility OK 1024 No Significant change. Runway 12: Clear and dry, 1-10% contamination with <1mm, friction coefficient 0.70. UUOO 270900Z 05004MPS 020V090 CAVOK 25/11 Q1024 R12/010070 NOSIG RMK QFE754
VFR 24°C / 11°C 70º variable 030º to 110º 8kt 9700m - Clouds and Visibility OK 1024 No Significant change. Runway 12: Clear and dry, 1-10% contamination with <1mm, friction coefficient 0.70. UUOO 270830Z 07004MPS 030V110 CAVOK 24/11 Q1024 R12/010070 NOSIG RMK QFE754
VFR 24°C / 11°C 60º 8kt 9700m - Clouds and Visibility OK 1024 No Significant change. Runway 12: Clear and dry, 1-10% contamination with <1mm, friction coefficient 0.70. UUOO 270800Z 06004MPS CAVOK 24/11 Q1024 R12/010070 NOSIG RMK QFE754
VFR 23°C / 11°C 80º variable 040º to 110º 8kt 9700m - Clouds and Visibility OK 1024 No Significant change. Runway 12: Clear and dry, 1-10% contamination with <1mm, friction coefficient 0.70. UUOO 270730Z 08004MPS 040V110 CAVOK 23/11 Q1024 R12/010070 NOSIG RMK QFE754
VFR 23°C / 11°C 90º variable 030º to 130º 6kt 9700m - Clouds and Visibility OK 1024 No Significant change. Runway 12: Clear and dry, 1-10% contamination with <1mm, friction coefficient 0.70. UUOO 270700Z 09003MPS 030V130 CAVOK 23/11 Q1024 R12/010070 NOSIG RMK QFE754

VFR

19°C / 9°C

[Viac]
Vietor 80º 6kt
Viditeľnosť 9700m
Počasie -
Oblaky Clouds and Visibility OK
Tlak 1024
Zmeniť No Significant change. Runway 12: Clear and dry, 1-10% contamination with <1mm, friction coefficient 0.70.
Nespracované UUOO 271830Z 08003MPS CAVOK 19/09 Q1024 R12/010070 NOSIG RMK QFE754

VFR

20°C / 10°C

[Viac]
Vietor 90º 6kt
Viditeľnosť 9700m
Počasie -
Oblaky Clouds and Visibility OK
Tlak 1024
Zmeniť No Significant change. Runway 12: Clear and dry, 1-10% contamination with <1mm, friction coefficient 0.70.
Nespracované UUOO 271800Z 09003MPS CAVOK 20/10 Q1024 R12/010070 NOSIG RMK QFE754

VFR

21°C / 10°C

[Viac]
Vietor 90º 6kt
Viditeľnosť 9700m
Počasie -
Oblaky Clouds and Visibility OK
Tlak 1024
Zmeniť No Significant change. Runway 12: Clear and dry, 1-10% contamination with <1mm, friction coefficient 0.70.
Nespracované UUOO 271730Z 09003MPS CAVOK 21/10 Q1024 R12/010070 NOSIG RMK QFE754

VFR

21°C / 10°C

[Viac]
Vietor 90º 6kt
Viditeľnosť 9700m
Počasie -
Oblaky Clouds and Visibility OK
Tlak 1024
Zmeniť No Significant change. Runway 12: Clear and dry, 1-10% contamination with <1mm, friction coefficient 0.70.
Nespracované UUOO 271700Z 09003MPS CAVOK 21/10 Q1024 R12/010070 NOSIG RMK QFE754

VFR

23°C / 10°C

[Viac]
Vietor 90º 8kt
Viditeľnosť 9700m
Počasie -
Oblaky Clouds and Visibility OK
Tlak 1024
Zmeniť No Significant change. Runway 12: Clear and dry, 1-10% contamination with <1mm, friction coefficient 0.70.
Nespracované UUOO 271630Z 09004MPS CAVOK 23/10 Q1024 R12/010070 NOSIG RMK QFE754

VFR

23°C / 11°C

[Viac]
Vietor 90º 6kt
Viditeľnosť 9700m
Počasie -
Oblaky Clouds and Visibility OK
Tlak 1023
Zmeniť No Significant change. Runway 12: Clear and dry, 1-10% contamination with <1mm, friction coefficient 0.70.
Nespracované UUOO 271600Z 09003MPS CAVOK 23/11 Q1023 R12/010070 NOSIG RMK QFE753

VFR

24°C / 10°C

[Viac]
Vietor 70º 6kt
Viditeľnosť 9700m
Počasie -
Oblaky Clouds and Visibility OK
Tlak 1023
Zmeniť No Significant change. Runway 12: Clear and dry, 1-10% contamination with <1mm, friction coefficient 0.70.
Nespracované UUOO 271530Z 07003MPS CAVOK 24/10 Q1023 R12/010070 NOSIG RMK QFE753

VFR

24°C / 11°C

[Viac]
Vietor 70º 8kt
Viditeľnosť 9700m
Počasie -
Oblaky Clouds and Visibility OK
Tlak 1023
Zmeniť No Significant change. Runway 12: Clear and dry, 1-10% contamination with <1mm, friction coefficient 0.70.
Nespracované UUOO 271500Z 07004MPS CAVOK 24/11 Q1023 R12/010070 NOSIG RMK QFE753

VFR

25°C / 11°C

[Viac]
Vietor 90º 8kt
Viditeľnosť 9700m
Počasie -
Oblaky Clouds and Visibility OK
Tlak 1023
Zmeniť No Significant change. Runway 12: Clear and dry, 1-10% contamination with <1mm, friction coefficient 0.70.
Nespracované UUOO 271430Z 09004MPS CAVOK 25/11 Q1023 R12/010070 NOSIG RMK QFE753

VFR

24°C / 11°C

[Viac]
Vietor 80º 8kt
Viditeľnosť 9700m
Počasie -
Oblaky Clouds and Visibility OK
Tlak 1023
Zmeniť No Significant change. Runway 12: Clear and dry, 1-10% contamination with <1mm, friction coefficient 0.70.
Nespracované UUOO 271400Z 08004MPS CAVOK 24/11 Q1023 R12/010070 NOSIG RMK QFE753

VFR

25°C / 11°C

[Viac]
Vietor 90º 10kt
Viditeľnosť 9700m
Počasie -
Oblaky Clouds and Visibility OK
Tlak 1023
Zmeniť No Significant change. Runway 12: Clear and dry, 1-10% contamination with <1mm, friction coefficient 0.70.
Nespracované UUOO 271330Z 09005MPS CAVOK 25/11 Q1023 R12/010070 NOSIG RMK QFE753

VFR

26°C / 11°C

[Viac]
Vietor 80º 10kt
Viditeľnosť 9700m
Počasie -
Oblaky Clouds and Visibility OK
Tlak 1024
Zmeniť No Significant change. Runway 12: Clear and dry, 1-10% contamination with <1mm, friction coefficient 0.70.
Nespracované UUOO 271300Z 08005MPS CAVOK 26/11 Q1024 R12/010070 NOSIG RMK QFE753

VFR

25°C / 11°C

[Viac]
Vietor 80º 8kt
Viditeľnosť 9700m
Počasie -
Oblaky Clouds and Visibility OK
Tlak 1024
Zmeniť No Significant change. Runway 12: Clear and dry, 1-10% contamination with <1mm, friction coefficient 0.70.
Nespracované UUOO 271230Z 08004MPS CAVOK 25/11 Q1024 R12/010070 NOSIG RMK QFE754

VFR

24°C / 11°C

[Viac]
Vietor 100º 8kt
Viditeľnosť 9700m
Počasie -
Oblaky Clouds and Visibility OK
Tlak 1024
Zmeniť No Significant change. Runway 12: Clear and dry, 1-10% contamination with <1mm, friction coefficient 0.70.
Nespracované UUOO 271200Z 10004MPS CAVOK 24/11 Q1024 R12/010070 NOSIG RMK QFE754

VFR

24°C / 11°C

[Viac]
Vietor 90º 6kt
Viditeľnosť 9700m
Počasie -
Oblaky Clouds and Visibility OK
Tlak 1024
Zmeniť No Significant change. Runway 12: Clear and dry, 1-10% contamination with <1mm, friction coefficient 0.70.
Nespracované UUOO 271130Z 09003MPS CAVOK 24/11 Q1024 R12/010070 NOSIG RMK QFE754

VFR

23°C / 11°C

[Viac]
Vietor 60º 6kt
Viditeľnosť 9700m
Počasie -
Oblaky Clouds and Visibility OK
Tlak 1024
Zmeniť No Significant change. Runway 12: Clear and dry, 1-10% contamination with <1mm, friction coefficient 0.70.
Nespracované UUOO 271100Z 06003MPS CAVOK 23/11 Q1024 R12/010070 NOSIG RMK QFE754

VFR

24°C / 11°C

[Viac]
Vietor 50º 8kt
Viditeľnosť 9700m
Počasie -
Oblaky Clouds and Visibility OK
Tlak 1024
Zmeniť No Significant change. Runway 12: Clear and dry, 1-10% contamination with <1mm, friction coefficient 0.70.
Nespracované UUOO 271030Z 05004MPS CAVOK 24/11 Q1024 R12/010070 NOSIG RMK QFE754

VFR

25°C / 10°C

[Viac]
Vietor 80º 8kt
Viditeľnosť 9700m
Počasie -
Oblaky Clouds and Visibility OK
Tlak 1024
Zmeniť No Significant change. Runway 12: Clear and dry, 1-10% contamination with <1mm, friction coefficient 0.70.
Nespracované UUOO 271000Z 08004MPS CAVOK 25/10 Q1024 R12/010070 NOSIG RMK QFE754

VFR

26°C / 10°C

[Viac]
Vietor 110º variable 070º to 140º 8kt
Viditeľnosť 9700m
Počasie -
Oblaky Clouds and Visibility OK
Tlak 1024
Zmeniť No Significant change. Runway 12: Clear and dry, 1-10% contamination with <1mm, friction coefficient 0.70.
Nespracované UUOO 270930Z 11004MPS 070V140 CAVOK 26/10 Q1024 R12/010070 NOSIG RMK QFE754

VFR

25°C / 11°C

[Viac]
Vietor 50º variable 020º to 090º 8kt
Viditeľnosť 9700m
Počasie -
Oblaky Clouds and Visibility OK
Tlak 1024
Zmeniť No Significant change. Runway 12: Clear and dry, 1-10% contamination with <1mm, friction coefficient 0.70.
Nespracované UUOO 270900Z 05004MPS 020V090 CAVOK 25/11 Q1024 R12/010070 NOSIG RMK QFE754

VFR

24°C / 11°C

[Viac]
Vietor 70º variable 030º to 110º 8kt
Viditeľnosť 9700m
Počasie -
Oblaky Clouds and Visibility OK
Tlak 1024
Zmeniť No Significant change. Runway 12: Clear and dry, 1-10% contamination with <1mm, friction coefficient 0.70.
Nespracované UUOO 270830Z 07004MPS 030V110 CAVOK 24/11 Q1024 R12/010070 NOSIG RMK QFE754

VFR

24°C / 11°C

[Viac]
Vietor 60º 8kt
Viditeľnosť 9700m
Počasie -
Oblaky Clouds and Visibility OK
Tlak 1024
Zmeniť No Significant change. Runway 12: Clear and dry, 1-10% contamination with <1mm, friction coefficient 0.70.
Nespracované UUOO 270800Z 06004MPS CAVOK 24/11 Q1024 R12/010070 NOSIG RMK QFE754

VFR

23°C / 11°C

[Viac]
Vietor 80º variable 040º to 110º 8kt
Viditeľnosť 9700m
Počasie -
Oblaky Clouds and Visibility OK
Tlak 1024
Zmeniť No Significant change. Runway 12: Clear and dry, 1-10% contamination with <1mm, friction coefficient 0.70.
Nespracované UUOO 270730Z 08004MPS 040V110 CAVOK 23/11 Q1024 R12/010070 NOSIG RMK QFE754

VFR

23°C / 11°C

[Viac]
Vietor 90º variable 030º to 130º 6kt
Viditeľnosť 9700m
Počasie -
Oblaky Clouds and Visibility OK
Tlak 1024
Zmeniť No Significant change. Runway 12: Clear and dry, 1-10% contamination with <1mm, friction coefficient 0.70.
Nespracované UUOO 270700Z 09003MPS 030V130 CAVOK 23/11 Q1024 R12/010070 NOSIG RMK QFE754

Správy TAF pre lokalitu 51.82°S 39.23°V (UUOO)

From till


From till Wind 90º 6kt. Visibility 9700m. Nil Significant Cloud.

Nespracované: TAF UUOO 271700Z 2718/2803 09003MPS CAVOK

Radar a krátkodobá predpoveď zrážok pre 51.82°S 39.23°V

Mrholenie
Slabý
Mierne
Ťažké
Veľmi ťažké
Krúpy

Značka polohy je umiestnená na 51.82°S 39.23°V. Táto animácia zobrazuje zrážkový radar pre vybraný časový rozsah, ako aj 2h predpoveď. Oranžové krížiky označujú blesky. Údaje poskytol nowcast.de (k dispozícii v USA, Európe a Austrálii). Mrholenie alebo slabé sneženie môže byť pre radar neviditeľné. Intenzita zrážok je farebne označená od tyrkysovej po červenú.

Aktuálne satelitné snímky a snímky zrážok pre lokalitu 51.82°S 39.23°V

Značka polohy je umiestnená na51.82°S 39.23°V. [Viac]

Satelitné snímky zhotovované v reálnom čase využívajú viditeľné svetlo počas dňa a infračervené žiarenie počas noci. Vzhľadom na to, že infračervené žiarenie zisťuje teplotné rozdiely, snímka v noci nie je tmavá. Nízke oblaky a hmlu je, žiaľ, ťažké odlíšiť od prízemných teplôt, preto môžu byť počas noci takmer neviditeľné. Meteosat satelitné snímky pre Európu sú aktualizované v reálnom čase každých 5 minút. Snímky z GOES-16/GOES-17 (Severná a Južná Amerika) a Himawari (Ázia) sú aktualizované každých 10 minút.

Zrážky sa odhadujú z radarov a satelitov. Odhady zrážok zo satelitov sú v noci menej presné ako počas dňa.

© 2024 meteoblue, NOAA Satellites GOES-16 and EUMETSAT. Údaje o bleskoch poskytuje nowcast.

Späť nahor
×
Dobrý deň,
zdá sa, že používate blokovač reklám.

Inzercia je nevyhnutná na udržiavanie našej bezplatnej webovej stránky s jedinečnými detailmi a presnosťou.

Prosím, zapíšte si www.meteoblue.com na bielu listinu blokovača reklám alebo zvážte kúpu niektorého z našich produktov:

Už máte predplatné?
Potom sa prosím prihláste.